San Antonio Stinson, TX

1:36 AM CDT on June 28, 2017 (GMT -0500)
Stinson Municipal

Weather History for KSSF - September, 2012

Change the Weather History Date:

Wednesday, September 19, 2012

  Actual Average Record
Temperature  
Mean Temperature 76 °F -  
Max Temperature 88 °F 87 °F 97 °F (2011)
Min Temperature 66 °F 66 °F 61 °F (2006)
Cooling Degree Days 12    
Growing Degree Days 26 (Base 50)    
Moisture  
Dew Point 61 °F    
Average Humidity 63    
Maximum Humidity 90    
Minimum Humidity 35    
Precipitation  
Precipitation 0.00 in - - ()
Sea Level Pressure  
Sea Level Pressure 30.05 in    
Wind  
Wind Speed 2 mph (ENE)    
Max Wind Speed 7 mph    
Max Gust Speed -    
Visibility 10 miles    
Events      
Averages and records for this station are not official NWS values.
T = Trace of Precipitation, MM = Missing Value Source: NWS Daily Summary

Daily Weather History Graph

Daily Weather History Graph

Search for Another Location

Airport or City:

Trip Planner

Search our weather history database for the weather conditions in past years. The results will help you decide how hot, cold, wet, or windy it might be!

Date:

Astronomy

Sep. 19, 2012 Rise Set
Actual Time 7:20 AM CDT 7:33 PM CDT
Civil Twilight 6:57 AM CDT 7:57 PM CDT
Nautical Twilight 6:29 AM CDT 8:24 PM CDT
Astronomical Twilight 6:01 AM CDT 8:52 PM CDT
Moon 11:09 AM CDT (9/19) 10:08 PM CDT (9/19)
Length of Visible Light 12h 59m
Length of Day
12h 12m
Waxing Crescent, 17% of the Moon is Illuminated
Sep 19
Waxing Crescent
Sep 22
First Quarter
Sep 29
Full
Oct 8
Last Quarter
Oct 15
New

Hourly Weather History & Observations

Time (CDT) Temp. Heat Index Dew Point Humidity Pressure Visibility Wind Dir Wind Speed Gust Speed Precip Events Conditions
12:53 AM 72.0 °F - 63.0 °F 73% 30.03 in 10.0 mi Calm Calm - N/A   Clear
1:53 AM 72.0 °F - 62.1 °F 71% 30.03 in 10.0 mi Calm Calm - N/A   Clear
2:53 AM 66.9 °F - 64.0 °F 90% 30.03 in 10.0 mi Calm Calm - N/A   Clear
3:53 AM 66.9 °F - 64.0 °F 90% 30.04 in 10.0 mi Calm Calm - N/A   Clear
4:53 AM 68.0 °F - 63.0 °F 84% 30.04 in 10.0 mi NE 3.5 mph - N/A   Clear
5:53 AM 68.0 °F - 61.0 °F 78% 30.05 in 10.0 mi Calm Calm - N/A   Clear
6:53 AM 68.0 °F - 60.1 °F 76% 30.06 in 10.0 mi NNE 3.5 mph - N/A   Clear
7:00 AM 66.2 °F - 60.8 °F 83% 30.09 in 10.0 mi North 3.5 mph - N/A   Clear
8:53 AM 71.1 °F - 62.1 °F 73% 30.10 in 10.0 mi ENE 6.9 mph - N/A   Clear
9:53 AM 75.0 °F - 62.1 °F 64% 30.11 in 10.0 mi ENE 5.8 mph - N/A   Clear
10:53 AM 78.1 °F - 61.0 °F 56% 30.11 in 10.0 mi ENE 6.9 mph - N/A   Clear
11:53 AM 81.0 °F 81.7 °F 61.0 °F 50% 30.11 in 10.0 mi NE 6.9 mph - N/A   Clear
12:53 PM 82.9 °F 83.2 °F 60.1 °F 46% 30.09 in 10.0 mi Calm Calm - N/A   Clear
1:53 PM 82.9 °F 82.8 °F 59.0 °F 44% 30.07 in 10.0 mi Variable 3.5 mph - N/A   Clear
2:53 PM 84.0 °F 83.5 °F 57.9 °F 41% 30.04 in 10.0 mi Calm Calm - N/A   Clear
3:53 PM 87.1 °F 85.7 °F 55.9 °F 35% 30.02 in 10.0 mi Calm Calm - N/A   Clear
4:53 PM 87.1 °F 85.9 °F 57.0 °F 36% 30.00 in 10.0 mi Calm Calm - N/A   Clear
5:53 PM 84.9 °F 83.9 °F 57.0 °F 38% 30.00 in 10.0 mi Calm Calm - N/A   Clear
6:53 PM 82.9 °F 82.8 °F 59.0 °F 44% 30.00 in 10.0 mi ESE 5.8 mph - N/A   Clear
8:53 PM 75.0 °F - 63.0 °F 66% 30.02 in 10.0 mi Calm Calm - N/A   Clear
9:53 PM 73.0 °F - 63.0 °F 71% 30.04 in 10.0 mi Calm Calm - N/A   Clear
10:53 PM 73.0 °F - 61.0 °F 66% 30.04 in 10.0 mi Calm Calm - N/A   Clear
11:53 PM 71.1 °F - 61.0 °F 70% 30.05 in 10.0 mi ESE 3.5 mph - N/A   Clear